Regional Weather Roundup
Issued by NWS State College, PA

Home | Current Version | Previous Version | Text Only | Print | Product List | Glossary On
Versions: 1 2 3 4 5 6 7 8 9 10 11 12 13 14 15 16 17 18 19 20 21 22 23 24 25 26 27 28 29 30 31 32 33 34 35 36 37 38 39 40 41 42 43 44 45 46 47 48 49 50
111
ASUS41 KCTP 240710
RWRCTP

REGIONAL WEATHER ROUNDUP
NATIONAL WEATHER SERVICE STATE COLLEGE PA
200 AM EST FRI NOV 24 2017

Note: "fair" indicates few or no clouds below 12,000 feet with no
significant weather and/or obstructions to visibility.

* = STATION THAT DOES NOT REPORT PRECIPITATION /E.G. RAIN...SNOW...ETC/
    THUNDER OR FOG.

PAZ002>004-007>009-013>016-020>023-029>032-240800-
WESTERN PENNSYLVANIA

CITY           SKY/WX    TMP DP  RH WIND       PRES   REMARKS
ERIE           CLEAR     35  24  64 S12       29.95F
MEADVILLE      CLEAR     31  23  72 S6        29.96F
FRANKLIN*      CLEAR     30  21  69 SW5       29.98F
NEW CASTLE     FAIR      30  23  75 CALM      30.00F
BEAVER COUNTY  NOT AVBL
BUTLER*        CLEAR     31  22  69 S3        30.01F
PITTSBURGH INT CLEAR     29  23  78 S3        30.00F
PITTSBURGH     CLEAR     31  19  61 S8        30.01F
INDIANA*       PTCLDY    28  25  86 CALM      30.05S
LATROBE        CLEAR     27  23  86 CALM      30.03S
WASHINGTON CO* CLOUDY    25  22  88 CALM      30.05F
$$

PAZ004>006-010>012-017>019-024>028-033>037-041-042-045-046-049>053-240800-
CENTRAL PENNSYLVANIA

CITY           SKY/WX    TMP DP  RH WIND       PRES   REMARKS
BRADFORD       PTCLDY    31  21  66 CALM      29.94F
DUBOIS         PTCLDY    30  20  66 SW7       29.97F
CLEARFIELD     CLEAR     28  22  78 S3        30.00S
JOHNSTOWN      CLEAR     31  19  61 SW5       29.97F
ALTOONA        CLEAR     33  21  61 S6        30.00S
STATE COLLEGE  CLEAR     36  20  53 W12       30.00S
WILLIAMSPORT   CLOUDY    34  25  69 CALM      30.01F
SELINSGROVE    MOCLDY    29  25  85 CALM      30.05R
FT INDIANTOWN  CLEAR     23  23  99 CALM      30.04S
CAPITAL CITY   CLEAR     27  21  78 SW3       30.05S
HARRISBURG     PTCLDY    27  25  92 CALM      30.05R
YORK           CLEAR     24  23  96 CALM      30.04S
$$

PAZ038>040-043-044-047-048-054-055-060>062-067>071-240800-
EASTERN PENNSYLVANIA

CITY           SKY/WX    TMP DP  RH WIND       PRES   REMARKS
SCRANTON       CLOUDY    31  23  72 SW3       30.00S
MOUNT POCONO   CLEAR     27  20  75 W10       29.95R
ALLENTOWN      CLEAR     26  20  77 CALM      30.04S
QUAKERTOWN*    SUNNY     23  21  93 CALM      30.04S
READING        CLEAR     27  25  92 CALM      30.05R
LANCASTER      CLEAR     26  23  88 CALM      30.05S
COATESVILLE    SUNNY     32  21  64 W3        30.05R
POTTSTOWN      CLEAR     24  20  84 CALM      30.06S
BLUE BELL      CLEAR     25  23  93 CALM      30.07R
DOYLESTOWN     CLEAR     26  20  77 CALM      30.03S
WILLOW GROVE   NOT AVBL
NORTH PHILA    CLEAR     29  22  75 CALM      30.07S
PHILADELPHIA   CLEAR     34  26  72 SW3       30.07S
$$




USA.gov is the U.S. government's official web portal to all federal, state and local government web resources and services.